Location: Maiden
(35.5760°N, 81.2120°W)
Time: 03:26:20
(UTC-04:00)

Cosmos 407 Rocket - Pass Details

Date: 02 August 2020
Orbit: 744 x 786 km, 74.0° (Epoch: 11 August)

Event Time Altitude Azimuth Distance (km) Brightness Sun altitude
Exits shadow 23:26:51 57° 273° (W) 921 3.9 -29.4°
Maximum altitude 23:27:10 58° 290° (WNW) 912 4.0 -29.4°
Drops below altitude 10° 23:32:25 10° 9° (N) 2,339 6.5 -30.0°
Sets 23:34:51 0° 13° (NNE) 3,266 7.3 -30.3°
